Location: Big Tree
(37.5099°N, 119.6021°W)
Time: 23:51:00
(UTC+00:00)

SL-16 R/B - Pass Details

Date: 05 August 2024
Orbit: 985 x 1006 km, 99.7° (Epoch: 08 September)

Event Time Altitude Azimuth Distance (km) Brightness Sun altitude
Exits shadow 12:15:27 12° 231° (SW) 2,606 4.1 -9.9°
Maximum altitude 12:18:52 18° 267° (W) 2,219 3.9 -9.3°
Drops below altitude 10° 12:22:53 10° 308° (NW) 2,746 4.6 -8.6°
Sets 12:26:17 0° 327° (NNW) 3,700 5.5 -8.0°
